GFSNGP_sfc_30mbdewp_255.txt.gz
Dewpoint
10 15 16 17 16 14 12 14 13 10 8 4 8 13 19 22 25 25 25 24 24 25 25 24 25 24 25 25 25 25 25 25 27 29 31 31 33 35 35 37 39 39 38 38
13 10 9 6 8 14 14 13 10 8 8 9 9 19 24 25 26 24 24 23 24 24 24 25 23 23 23 24 25 25 24 25 25 28 29 30 33 33 33 34 35 37 38 38
11 12 12 14 14 7 8 12 11 8 10 12 19 22 24 25 24 23 24 23 24 25 25 24 22 22 23 24 23 23 24 23 25 27 28 29 30 30 33 34 34 34 36 37
16 14 14 18 16 13 8 8 10 11 11 19 20 23 25 24 23 23 24 25 26 27 25 22 20 21 23 23 22 22 22 24 25 26 27 28 29 30 32 33 34 34 35 34
20 14 14 14 17 13 10 9 12 12 14 21 22 24 24 23 24 24 25 28 29 27 23 19 20 22 23 23 22 21 23 24 25 25 27 28 29 29 30 31 32 33 32 33
22 21 17 16 15 18 14 13 16 18 18 21 21 21 20 23 24 25 28 28 27 24 19 19 22 23 24 23 22 23 25 24 24 25 27 28 28 29 31 31 30 31 31 32
23 21 20 17 17 20 12 17 17 20 20 21 22 21 23 24 23 26 28 26 23 18 17 19 21 22 22 23 24 25 25 25 24 26 28 27 28 29 29 29 30 31 31 32
20 19 18 19 20 15 20 23 19 18 20 23 22 23 23 21 24 26 25 23 16 14 15 18 19 21 23 24 26 26 26 25 24 27 27 27 28 29 30 30 30 31 32 32
20 20 24 23 24 22 25 22 20 20 20 23 23 21 19 22 25 26 25 18 13 13 15 17 19 23 24 26 26 26 26 24 25 27 27 28 28 29 29 30 31 31 31 31
20 20 23 23 23 23 24 20 19 19 21 22 21 22 21 24 26 26 21 12 14 14 15 17 21 23 25 25 26 26 25 24 25 27 28 28 29 29 30 30 33 32 31 31
21 18 21 20 22 22 23 20 20 20 20 19 20 21 20 23 26 24 14 13 15 16 17 20 22 23 25 25 27 26 25 24 26 28 28 28 28 29 30 32 31 32 33 33
18 19 20 19 21 21 22 21 22 21 19 20 21 20 20 26 26 19 13 15 15 17 20 22 23 24 25 27 28 27 25 25 27 29 29 29 30 30 32 31 31 32 31 31
19 19 21 18 19 20 20 21 22 21 18 19 21 21 25 26 24 18 16 14 16 19 22 23 23 24 26 28 28 26 25 25 27 29 29 30 30 30 30 31 31 31 31 31
19 20 19 20 18 18 18 20 20 19 20 21 20 25 27 24 18 14 14 16 19 20 22 23 24 25 27 29 28 25 26 26 26 29 30 30 30 30 30 30 29 29 31 30
18 19 18 20 19 19 20 20 21 22 23 24 25 28 26 19 16 15 16 19 21 22 22 24 24 25 27 29 28 26 26 27 28 29 30 29 30 30 29 29 29 29 30 30
19 19 20 18 20 20 21 22 23 24 26 27 28 28 24 16 16 16 18 21 23 23 23 25 26 26 28 28 28 28 27 28 27 27 29 28 28 29 28 28 28 29 29 30
16 20 21 21 20 21 21 23 24 25 27 29 29 28 23 19 17 17 19 23 24 25 26 26 27 28 28 28 28 28 28 28 27 26 26 27 27 28 28 27 27 27 29 29
17 21 23 24 24 26 24 25 26 26 29 30 31 29 24 21 22 23 25 27 27 27 27 27 28 27 28 28 28 28 28 27 26 25 25 25 27 26 27 27 26 26 27 28
19 19 23 24 26 28 29 28 29 30 33 35 34 29 28 28 30 31 30 28 27 28 30 29 27 27 28 28 26 28 28 27 26 25 25 25 25 25 25 26 26 26 26 26
21 20 21 23 25 30 29 31 34 35 37 36 32 31 29 29 31 30 30 29 32 32 31 28 27 27 28 28 26 28 27 26 26 25 25 24 25 24 25 24 24 24 25 25
22 23 24 26 28 33 34 35 36 36 36 33 30 28 27 30 30 29 29 30 34 31 28 27 27 27 27 26 27 27 26 25 24 24 24 23 24 24 23 22 23 23 23 23
24 26 29 31 33 31 35 35 34 36 34 32 31 30 29 30 30 29 32 34 34 29 27 26 26 25 24 23 26 26 25 24 23 23 23 22 22 21 22 22 22 22 22 22
25 27 31 32 31 29 30 30 33 35 34 31 30 29 28 28 29 28 28 32 31 29 27 25 25 22 20 25 25 24 23 22 21 20 20 20 19 18 18 18 17 18 19 19
26 28 31 31 30 29 29 29 32 33 33 32 31 31 29 30 31 32 34 34 30 28 27 28 24 18 18 25 24 22 21 21 20 20 18 18 18 18 17 17 16 16 16 16
27 29 30 29 27 29 28 31 31 32 31 30 30 30 31 31 34 32 33 32 28 26 26 21 19 16 24 23 22 21 21 19 18 18 18 17 17 16 16 15 15 15 15 15
27 28 28 28 28 28 28 30 29 30 30 31 32 34 33 32 31 33 33 31 28 24 27 23 21 21 22 20 20 19 19 17 17 16 16 16 15 14 13 13 13 13 13 13
27 28 29 29 27 29 31 31 31 32 32 33 33 36 37 35 33 32 31 29 26 24 25 24 20 19 21 19 18 17 17 16 12 13 14 14 13 13 12 12 13 13 12 11

GFSNGP_sfc_30mbdewp_258.txt.gz
Dewpoint
18 17 14 10 11 12 13 16 15 14 19 24 23 22 20 19 22 24 25 24 23 25 25 25 25 24 24 25 26 26 26 26 28 29 30 31 33 34 35 35 35 36 36 37
14 9 9 14 14 12 10 11 12 13 8 5 6 13 19 22 24 24 23 24 24 24 25 25 23 22 23 25 25 26 25 26 26 28 29 30 32 33 33 34 35 35 36 36
15 10 9 10 11 11 13 12 11 11 10 9 12 12 20 24 25 24 23 23 24 25 26 24 22 21 23 24 24 25 25 25 26 27 28 29 30 31 32 33 34 34 33 34
17 14 11 17 14 11 5 9 13 13 11 11 15 20 23 25 24 23 24 25 27 28 26 23 20 23 23 24 24 24 25 26 26 27 28 29 30 31 32 33 32 32 32 32
20 17 15 17 19 12 11 6 8 10 10 12 20 23 24 24 24 25 25 28 29 27 24 20 21 22 23 24 24 24 26 27 27 27 28 30 30 31 31 31 30 30 30 31
25 20 15 15 15 13 13 9 10 11 12 13 21 20 22 25 25 26 28 28 27 24 19 18 20 22 22 23 24 26 27 27 27 27 29 29 30 30 31 30 30 30 31 32
24 25 21 18 16 16 11 15 15 14 16 17 22 22 26 26 25 27 28 26 23 17 16 18 19 20 21 23 25 26 27 28 27 28 29 29 30 30 29 30 30 31 31 32
23 21 15 19 19 16 21 21 21 21 22 24 24 27 26 23 22 25 25 23 17 13 14 17 19 20 21 23 25 26 27 27 26 28 29 29 29 28 29 30 31 32 32 31
22 22 26 21 21 25 26 23 21 20 22 24 24 24 23 20 24 25 25 21 12 12 13 16 18 21 22 24 25 26 27 27 26 28 29 30 28 28 30 31 32 32 31 32
21 21 23 23 24 27 24 23 20 21 22 24 24 23 21 23 25 26 24 14 12 13 14 17 20 21 23 24 26 27 27 26 26 28 29 28 28 30 31 31 32 32 32 32
22 21 23 23 22 26 23 21 20 20 21 23 22 22 22 22 25 26 20 12 13 14 16 18 20 22 23 25 27 27 27 26 26 29 29 29 30 30 31 31 31 31 32 32
24 22 25 25 25 23 24 20 20 20 20 20 20 20 21 20 25 25 14 14 13 16 19 20 21 22 23 27 29 27 27 26 27 28 29 30 30 30 31 31 31 30 30 31
22 24 25 24 23 24 23 22 21 22 21 20 20 21 20 23 26 18 13 13 14 17 20 21 22 22 25 28 29 28 26 26 28 28 29 29 29 29 29 29 30 30 30 30
23 22 24 22 21 23 23 23 24 23 22 20 21 22 22 26 21 15 13 14 17 19 20 21 22 23 26 28 28 27 28 27 28 29 28 28 29 29 29 27 27 28 29 29
23 22 24 22 20 20 21 22 23 22 20 20 20 22 27 26 19 13 14 17 19 20 20 22 22 24 27 29 27 28 28 28 28 30 29 27 28 28 28 26 26 26 27 28
22 22 20 21 20 20 20 22 22 21 22 23 24 27 28 25 16 15 16 20 23 22 21 24 25 26 29 28 28 29 29 28 29 29 28 26 26 27 27 26 26 25 26 26
20 20 21 21 22 20 21 23 24 25 26 27 28 29 27 20 17 17 18 22 23 24 25 25 27 28 28 28 28 29 28 30 29 29 27 26 26 26 25 25 25 25 25 26
21 23 24 24 24 25 25 25 27 27 30 30 30 30 27 21 20 21 23 26 26 27 27 27 29 28 28 28 28 28 28 28 28 28 25 24 25 24 25 24 24 24 24 25
21 19 24 25 27 28 29 29 29 30 33 33 33 31 27 25 27 29 30 27 25 24 27 30 28 27 28 27 27 27 26 27 26 26 25 25 24 25 25 24 24 24 24 23
22 20 22 25 27 30 30 31 32 32 35 35 33 31 28 30 31 30 29 25 29 33 33 31 28 28 27 28 27 29 26 26 24 24 25 24 24 25 24 23 23 23 23 22
24 23 22 27 29 31 32 33 33 35 37 34 32 30 28 31 31 30 28 28 31 32 31 28 28 28 29 28 27 28 26 24 23 22 22 22 21 21 20 20 20 21 21 20
25 25 26 29 32 32 35 35 36 38 36 33 32 31 30 30 30 30 31 31 34 32 30 29 29 28 27 22 27 25 23 22 22 21 21 20 20 20 20 20 20 20 19 19
27 27 31 32 34 35 37 37 38 37 35 33 31 30 28 29 30 28 27 31 35 31 31 30 27 24 22 26 26 24 23 23 22 22 21 21 21 20 20 19 18 18 18 17
28 29 33 34 34 34 34 36 37 36 35 33 31 30 29 31 32 32 35 35 32 31 31 27 25 21 19 27 25 24 23 22 21 22 20 19 20 19 18 18 17 17 17 16
28 29 32 32 31 31 31 31 34 35 35 33 32 31 31 34 35 35 37 34 30 30 29 25 21 19 24 25 24 23 23 22 20 20 19 19 18 18 17 16 16 16 16 15
28 31 32 32 31 30 31 31 33 35 34 33 33 32 33 35 36 36 36 32 29 29 29 24 22 21 25 24 23 22 21 19 19 18 18 17 16 16 15 15 15 15 15 14
30 32 31 30 31 32 33 34 34 34 33 34 34 35 35 36 35 36 33 31 29 27 30 26 25 23 24 23 22 20 20 18 13 16 16 16 16 15 14 14 15 15 13 12

GFSNGP_sfc_30mbdewp_261.txt.gz
Dewpoint
20 15 14 15 17 18 20 20 14 24 24 23 22 23 22 21 23 26 25 25 26 25 26 25 24 23 26 25 26 27 26 28 28 29 30 30 32 33 32 33 33 34 33 33
13 10 10 15 14 16 19 17 15 24 23 25 24 23 21 22 24 25 25 24 25 26 25 23 22 24 24 25 26 26 28 27 28 28 29 30 31 32 32 33 32 32 31 31
13 12 11 8 12 13 14 15 15 12 12 21 20 19 22 23 24 25 25 25 27 27 24 22 23 24 24 24 26 26 28 28 28 29 30 30 30 32 31 31 31 30 30 30
15 14 5 7 16 15 14 13 15 15 12 11 14 20 23 25 26 25 25 28 28 26 24 21 23 23 24 25 25 28 28 28 29 30 29 30 31 30 30 30 29 30 30 31
13 13 17 20 15 12 10 13 15 14 13 16 20 24 25 26 27 26 29 30 28 26 22 22 22 23 22 24 27 27 27 29 29 29 29 31 30 30 29 29 29 30 30 31
21 14 7 16 20 16 14 8 11 15 13 22 23 22 25 27 27 30 30 29 27 23 20 21 22 21 22 26 26 27 29 29 28 29 30 29 30 29 29 29 30 31 32 32
24 23 25 22 19 16 8 2 15 15 14 23 22 24 27 27 30 30 29 27 23 20 19 20 21 22 23 26 26 28 28 29 28 30 29 30 29 29 29 30 31 31 29 30
24 22 10 20 15 11 16 23 17 17 21 26 28 28 27 27 29 28 27 23 19 17 18 20 22 22 24 25 27 28 28 28 29 30 29 29 29 29 30 31 31 29 29 29
23 21 24 20 20 27 24 22 23 23 29 28 28 27 26 25 28 27 24 17 14 15 18 20 22 23 24 26 28 28 28 28 29 29 30 30 29 30 30 31 31 30 29 29
23 24 23 23 27 26 25 23 25 27 29 29 28 25 23 25 27 26 21 13 13 16 18 20 22 24 25 28 28 28 27 27 28 29 29 30 30 30 30 30 30 30 31 29
20 24 25 25 26 26 23 23 24 25 26 27 25 23 23 26 27 24 14 14 15 17 19 21 22 24 27 29 29 28 27 27 27 29 29 28 28 30 30 30 29 29 30 28
21 26 25 25 27 27 23 22 23 25 25 26 24 23 23 25 27 17 15 14 16 19 21 21 23 25 28 30 29 28 27 27 28 28 28 27 28 29 30 30 28 29 29 29
25 28 26 26 28 25 22 22 23 24 24 22 22 24 23 26 24 17 15 15 17 21 21 23 23 27 29 30 29 29 28 28 27 28 28 26 26 28 28 28 27 27 28 28
26 28 26 25 24 25 23 23 24 23 22 21 22 23 23 26 16 14 15 16 19 21 22 23 24 27 29 29 28 29 29 28 27 28 30 26 26 27 27 27 26 24 25 26
24 28 26 27 26 27 25 25 23 23 23 22 22 23 25 21 16 15 17 19 20 21 24 23 26 28 29 29 29 30 28 27 27 28 27 26 26 27 26 26 25 24 24 24
25 26 23 22 23 25 25 27 25 25 22 23 24 26 25 22 17 18 19 21 21 22 24 25 27 29 29 29 29 29 28 28 29 28 26 26 25 26 26 25 24 24 23 24
22 23 23 21 21 21 21 27 26 24 24 23 24 30 25 20 19 19 21 24 25 25 26 27 28 29 28 29 28 28 27 27 27 27 25 24 24 25 25 24 24 24 23 23
24 24 25 24 22 22 23 26 26 26 26 27 31 29 25 20 19 21 24 25 26 26 27 29 29 28 29 28 27 26 26 26 25 24 24 23 26 25 25 24 24 23 23 22
24 25 26 26 27 25 25 26 27 28 29 31 29 27 23 21 21 25 26 25 25 25 27 29 27 27 28 26 26 26 25 24 23 23 23 22 22 23 23 21 21 21 22 20
23 23 26 28 29 28 28 29 29 30 31 31 30 27 23 24 26 26 25 24 25 22 28 28 27 28 27 26 26 27 24 23 22 21 22 22 21 20 20 19 19 19 19 18
24 23 23 29 29 29 30 31 30 31 33 31 30 27 26 28 27 26 24 23 30 32 31 28 27 27 27 27 26 25 23 23 21 21 20 19 19 17 18 18 18 18 17 16
26 25 23 27 29 30 31 32 32 34 33 32 30 28 28 29 29 28 26 23 29 31 30 27 27 27 27 24 26 23 22 22 21 21 20 19 19 19 18 16 16 16 16 15
27 27 27 29 31 32 33 34 34 33 32 31 29 28 28 29 29 27 24 31 32 31 29 28 28 26 24 23 25 22 22 22 21 20 19 19 18 17 17 16 15 15 14 14
28 28 30 32 34 34 34 35 36 34 33 32 30 29 29 28 28 27 27 29 33 31 30 28 26 24 22 25 24 23 22 21 20 20 19 18 17 16 15 15 14 14 13 13
30 32 34 35 34 34 35 37 36 35 33 32 31 30 30 29 25 28 32 31 32 30 29 24 22 20 21 25 23 22 21 20 19 19 18 17 16 14 13 14 13 14 12 12
32 34 34 34 34 35 37 37 36 35 33 32 31 30 31 32 33 33 33 31 30 28 26 21 19 18 24 23 22 21 20 18 15 17 16 15 15 13 13 13 13 13 10 10
33 33 33 32 33 34 35 35 35 34 33 32 31 31 32 34 35 33 31 30 29 28 25 22 20 20 24 22 21 20 19 17 17 16 15 14 14 12 12 12 12 12 8 8

GFSNGP_sfc_30mbdewp_264.txt.gz
Dewpoint
15 15 16 14 15 18 20 20 16 20 23 25 26 26 26 26 26 27 27 27 26 27 26 25 25 26 25 26 27 28 27 28 28 29 30 31 32 33 32 32 32 31 31 31
16 11 12 14 14 16 21 21 20 24 23 26 25 25 25 25 26 26 26 26 26 26 23 23 24 24 25 25 28 28 28 28 29 30 31 32 32 31 31 31 30 30 31 31
14 13 10 9 15 18 21 19 21 23 25 25 24 23 23 24 26 26 25 26 26 23 22 23 24 24 24 26 29 28 28 29 30 30 30 32 31 30 30 30 30 30 31 32
16 11 12 15 15 17 18 20 17 21 22 24 23 23 22 25 26 25 26 27 25 23 22 24 24 24 24 27 29 28 29 29 30 30 31 30 29 29 29 29 30 31 31 30
15 12 15 16 17 15 15 16 18 15 25 24 23 23 23 26 26 26 28 28 25 24 23 24 23 23 25 28 28 29 29 28 29 31 30 30 29 29 29 30 31 30 29 29
19 11 11 12 20 16 16 12 17 17 20 20 22 20 22 27 28 30 30 28 25 22 23 23 22 23 27 27 28 28 29 28 31 30 29 29 29 29 30 31 31 29 29 29
21 12 16 19 22 15 12 13 16 17 18 21 21 20 28 30 31 31 29 27 23 22 21 22 22 25 26 27 27 29 28 30 30 29 28 29 29 30 31 31 31 30 28 28
23 19 14 24 19 11 15 18 17 18 22 22 25 28 30 30 30 30 27 25 21 20 21 22 24 25 25 27 29 28 29 29 29 29 29 30 30 30 31 31 30 29 28 27
22 19 22 23 19 19 20 20 17 20 25 27 28 28 29 30 29 28 24 20 19 20 21 23 24 25 26 28 28 28 28 28 28 29 29 29 29 30 30 30 29 28 29 26
23 23 24 23 23 25 25 22 22 25 28 28 27 28 30 29 28 26 19 16 19 20 21 22 24 25 28 28 28 28 28 27 28 28 28 28 28 29 30 29 27 27 28 26
22 21 26 25 26 24 26 28 28 29 28 28 28 27 29 28 27 19 14 16 19 20 21 23 25 28 29 29 28 27 27 28 28 28 27 27 27 28 29 29 29 27 27 27
19 22 23 23 27 25 27 29 29 28 28 27 26 26 27 27 24 15 15 18 19 21 22 24 27 28 29 29 29 28 27 28 27 28 28 26 26 27 28 28 28 27 27 27
22 25 26 26 28 25 25 27 29 28 27 24 24 26 27 27 17 16 16 18 20 21 23 24 27 29 29 29 29 29 28 27 27 27 29 25 25 26 24 26 26 26 26 26
28 28 27 28 25 24 25 27 28 27 26 25 24 26 28 22 18 16 17 19 22 23 24 25 27 28 29 28 29 29 28 27 27 28 26 25 25 26 25 25 24 24 25 25
28 27 26 28 26 24 26 26 25 24 24 25 25 27 26 18 16 16 19 21 23 24 24 27 28 29 29 29 30 28 27 28 28 27 26 25 25 25 25 24 24 23 23 23
30 28 27 27 24 24 25 25 24 23 23 24 26 27 21 18 17 19 21 23 23 24 25 27 28 29 29 29 29 27 28 28 27 25 25 24 23 23 22 23 22 23 23 22
27 26 27 27 26 25 24 24 24 24 24 25 26 26 20 18 19 20 21 23 25 25 26 27 28 29 29 29 28 27 27 27 27 25 24 23 22 23 25 22 22 21 22 21
26 26 28 27 28 27 26 26 26 26 25 26 28 26 21 20 20 22 24 26 26 26 28 29 29 29 29 28 27 26 25 24 24 23 22 22 22 22 22 20 21 20 19 19
27 26 26 27 27 27 29 29 28 27 29 30 28 25 23 22 23 25 26 25 25 25 28 29 28 29 27 27 26 25 24 24 23 22 22 21 21 20 19 18 19 18 17 16
26 27 26 26 27 26 28 29 29 29 30 30 28 26 23 24 25 26 26 24 25 26 29 27 27 27 26 25 26 25 24 22 22 21 21 20 18 17 17 18 18 17 15 15
24 27 26 27 27 26 27 29 28 29 30 30 27 25 23 25 26 26 25 24 25 27 29 27 26 27 26 25 25 25 23 21 21 20 19 17 17 17 17 16 16 15 14 13
26 26 27 27 27 28 29 30 29 30 30 30 29 26 25 25 26 25 26 25 28 28 28 27 27 26 26 26 25 23 22 21 20 19 18 17 17 17 15 14 15 14 13 11
27 27 27 29 29 30 31 31 31 31 31 30 28 26 24 25 25 24 24 27 30 31 29 27 26 25 25 25 25 23 22 21 20 20 19 18 17 16 15 14 14 12 12 11
28 28 27 30 31 31 31 32 32 32 31 30 29 28 27 27 27 27 27 29 29 30 29 27 25 25 24 24 24 22 21 21 20 19 18 17 15 14 13 13 13 12 11 11
29 29 29 30 31 32 33 33 32 32 31 30 29 29 29 28 26 27 28 31 29 29 28 26 24 24 24 23 23 21 21 20 19 18 18 16 15 13 12 12 12 12 9 9
30 31 31 32 33 34 34 34 32 32 32 30 30 30 30 29 29 28 27 30 31 29 27 24 23 22 22 22 22 21 20 19 18 17 16 15 13 12 12 12 12 11 7 7
34 33 34 34 34 36 36 34 33 32 32 31 30 31 30 29 29 30 29 29 29 27 25 22 21 20 21 22 22 20 20 18 16 16 15 14 12 11 11 11 10 8 5 5